Theta_e
318 312 311 309 299 294 289 290 294 295 295 297 301 303 303 305 305 296 324 335 338 340 343 346 348 349 348 346 343 342 341 341 341 342 343 344 344 345 344 342 343 340 338 338 338 339 338 339 340
314 314 309 302 293 287 288 292 294 297 299 300 302 302 303 307 315 325 329 338 339 341 343 345 346 349 348 345 344 344 342 341 340 340 341 343 343 343 344 341 341 338 337 337 338 338 337 338 337
313 311 303 297 290 287 289 292 297 298 299 299 300 304 306 309 317 327 333 338 341 341 344 344 346 348 348 346 345 343 342 340 340 339 340 342 341 342 343 342 341 337 336 337 338 338 338 338 337
308 304 299 293 289 291 293 297 299 297 298 300 301 303 310 316 324 330 337 339 339 342 344 343 346 348 347 346 344 342 340 340 339 339 339 341 344 344 342 341 339 337 335 336 336 335 337 336 336
304 300 293 291 291 292 294 299 298 296 297 297 301 300 306 322 326 335 335 336 336 340 343 344 345 346 346 345 344 342 341 339 338 338 338 342 342 342 342 340 337 335 334 334 333 334 334 333 332
299 297 290 288 290 293 295 299 299 296 296 297 300 304 307 320 329 333 335 334 338 338 342 344 339 341 343 344 343 341 341 340 338 338 338 341 342 340 339 338 336 333 332 332 332 332 332 332 331
298 294 289 290 290 292 296 297 298 296 298 298 301 302 307 316 327 330 333 336 337 339 341 343 342 340 337 339 339 339 339 338 338 338 338 339 338 337 337 336 333 332 330 331 331 332 331 331 330
299 295 290 291 290 291 296 297 298 298 299 301 302 302 304 313 324 330 334 337 338 339 341 341 341 340 339 337 333 334 335 335 336 335 333 332 332 332 331 330 331 330 329 329 331 330 330 329 327
298 291 288 291 290 292 296 295 296 298 300 299 301 304 307 317 325 326 327 332 336 337 339 340 339 339 337 336 331 330 330 331 330 329 326 324 323 323 323 326 328 329 329 329 329 328 326 323 322
294 289 291 292 292 293 296 295 297 296 296 296 300 306 311 319 322 324 322 325 328 331 335 339 338 338 337 338 333 330 328 325 323 322 321 321 320 321 322 321 325 327 327 326 325 323 319 314 309
294 292 295 293 295 296 296 294 296 296 292 297 300 306 312 317 320 324 321 325 328 331 334 336 338 337 337 337 335 332 326 321 320 318 317 317 318 318 317 316 316 316 314 311 311 309 308 308 307
291 294 294 297 297 296 294 296 293 295 297 299 300 309 312 316 319 322 322 321 325 327 332 335 337 338 336 336 335 333 328 322 321 318 318 316 315 314 313 313 311 310 309 306 305 305 305 305 304
292 293 294 296 296 294 296 293 294 295 298 297 299 308 310 315 317 319 322 321 325 326 329 333 335 336 337 335 335 333 329 324 321 320 319 316 315 312 311 310 309 308 307 305 303 303 303 303 302
295 295 294 295 295 295 292 290 292 294 294 297 299 300 308 312 314 313 315 319 324 327 328 331 333 334 336 335 335 334 331 327 322 321 320 317 316 313 311 309 308 308 306 304 302 301 299 297 299
296 291 292 293 294 294 294 290 293 293 295 295 294 297 300 308 310 313 317 319 322 327 328 330 331 333 334 334 335 334 333 329 324 322 322 319 316 313 311 311 309 307 304 301 297 295 295 295 296
291 289 285 289 294 294 291 286 291 293 293 294 294 293 295 299 305 312 315 317 318 323 326 328 332 332 332 333 333 334 333 329 326 322 324 320 318 315 312 312 313 308 303 298 295 294 292 292 292
288 282 284 289 294 293 291 287 293 295 293 294 293 294 294 294 297 302 309 314 317 320 323 327 329 330 331 332 333 333 333 331 328 323 324 322 319 317 315 314 311 306 302 297 296 294 294 290 289
283 283 285 284 291 290 289 289 293 294 293 293 293 293 294 295 297 300 301 307 315 316 321 326 328 330 331 332 331 332 332 332 331 326 324 323 321 319 318 316 309 305 302 297 295 292 292 291 289
286 285 285 286 292 291 290 289 291 293 292 293 293 293 294 295 299 299 299 300 305 311 316 322 326 328 329 329 328 329 330 330 330 328 326 323 323 320 318 314 307 304 301 297 294 292 291 289 289
286 285 284 288 290 290 288 288 291 292 293 295 295 294 294 293 294 298 298 297 298 307 315 320 324 327 328 329 329 328 330 329 330 329 326 324 323 320 318 314 307 304 301 297 293 292 290 289 289
286 285 285 286 287 287 286 284 287 290 291 294 295 296 297 295 294 295 296 297 297 301 311 318 323 325 328 328 319 312 314 313 315 322 325 324 323 320 318 315 309 305 301 297 294 292 291 288 288
284 289 289 287 284 280 285 278 283 288 290 291 294 295 292 293 295 296 297 296 296 300 309 317 322 323 326 325 319 320 320 320 321 322 322 320 322 320 318 314 311 307 302 298 295 294 293 290 287
287 290 287 286 283 281 281 280 283 285 286 290 292 293 293 293 294 295 296 297 297 298 304 311 317 318 319 320 322 320 320 321 306 307 314 314 312 317 318 315 313 308 304 300 297 294 293 292 291
292 289 287 285 282 277 281 281 279 284 288 288 292 293 296 298 297 296 297 297 297 298 304 309 314 316 318 318 319 319 320 305 303 302 308 310 309 310 310 314 312 310 305 301 298 296 294 293 292
288 284 277 276 276 276 280 279 282 287 290 291 294 294 296 297 296 296 296 297 298 298 300 305 309 310 311 313 312 312 313 305 306 303 306 307 307 302 306 308 310 309 307 303 300 297 295 293 292
286 284 278 272 274 276 281 279 285 290 293 294 295 296 295 294 296 296 297 297 297 298 298 299 302 305 307 308 307 307 307 307 306 302 301 304 306 308 306 305 307 307 306 304 300 298 296 295 293
287 283 286 280 270 274 279 283 288 290 292 292 292 293 291 295 296 295 296 296 296 297 298 299 299 300 301 303 303 303 303 303 302 300 300 300 300 300 302 303 304 304 304 302 299 298 295 295 294
288 291 283 281 272 271 278 278 282 288 289 292 293 294 294 296 296 296 296 295 296 296 297 298 299 299 299 300 301 302 301 301 300 299 298 297 297 297 298 300 302 301 301 301 299 298 296 295 294
286 285 285 285 281 277 274 279 286 288 293 292 293 293 293 294 294 293 293 294 294 295 296 297 297 298 298 299 299 299 299 300 299 298 297 297 295 294 294 296 299 299 298 298 298 297 296 294 294
287 286 286 280 277 279 279 281 291 293 293 294 293 293 293 293 292 292 293 293 293 294 294 295 296 296 297 298 297 298 298 298 297 296 295 293 294 291 293 292 294 295 296 296 296 296 296 294 293
Wind_Speed
5 6 2 5 5 6 1 0 3 2 3 0 3 9 8 3 2 3 1 8 15 12 9 11 13 14 13 13 13 12 12 13 14 14 14 15 15 16 18 18 19 18 20 19 20 21 20 23 22
4 2 5 3 6 4 4 2 4 2 5 6 6 5 4 2 2 6 6 12 18 12 9 9 12 14 15 15 13 12 12 13 13 13 14 14 14 15 18 19 17 19 19 19 19 18 17 21 21
1 2 4 5 4 5 5 3 6 2 3 3 4 5 5 5 2 8 7 15 14 12 10 9 12 14 15 14 13 13 12 13 13 14 13 14 13 13 17 18 18 19 18 17 19 19 21 21 21
3 5 5 5 1 1 8 7 6 5 1 4 4 6 2 3 9 8 15 15 13 11 10 12 13 15 15 14 14 14 14 13 13 13 13 13 12 15 17 20 20 18 18 17 18 18 20 20 20
5 3 4 3 3 1 2 5 6 4 4 2 3 4 2 4 3 16 15 14 14 10 9 11 13 14 14 15 14 13 14 14 14 14 14 13 16 18 19 19 19 17 17 17 18 18 19 20 21
5 4 5 1 3 2 3 7 8 4 3 3 6 5 4 1 10 12 13 13 13 12 11 10 11 12 13 14 14 13 13 13 14 14 15 14 15 17 17 18 18 16 16 17 18 19 20 20 20
7 5 4 4 1 0 4 5 7 6 6 4 9 6 3 2 5 9 11 12 11 12 11 9 9 10 11 12 12 12 13 13 13 13 13 12 13 14 15 15 16 16 16 18 17 20 20 20 19
6 5 3 2 3 3 3 4 7 6 7 2 5 6 5 7 7 7 10 12 13 13 13 12 9 8 8 8 12 12 12 12 11 11 11 11 11 13 14 12 14 16 17 17 18 19 19 19 20
4 6 2 2 2 3 1 3 1 3 6 2 1 7 5 12 8 7 5 6 11 10 13 12 13 9 7 7 8 10 11 11 11 10 11 8 4 7 8 11 14 16 16 17 19 19 19 20 19
6 4 6 1 1 3 2 1 6 4 3 1 2 3 5 11 7 12 9 9 9 11 12 15 14 13 9 7 7 5 6 5 5 6 6 5 5 5 6 8 11 13 15 17 17 17 16 11 5
3 5 5 1 1 2 1 1 2 7 3 7 9 7 8 6 9 12 8 10 13 12 10 14 14 13 13 9 7 4 3 3 3 6 5 5 5 5 4 3 4 4 7 4 6 6 5 7 5
5 3 3 5 1 2 2 2 2 5 8 5 9 12 11 13 14 15 13 10 11 11 12 13 16 13 13 9 7 7 6 4 5 5 6 6 4 4 4 4 4 4 3 5 5 4 6 8 7
4 2 3 4 4 2 1 3 4 8 8 3 4 10 12 14 15 11 12 7 8 11 12 14 14 15 13 12 10 9 9 7 6 6 6 6 6 5 4 4 4 4 4 5 5 6 6 7 7
5 3 1 5 3 3 2 1 0 7 4 8 7 11 13 15 17 7 7 10 12 13 13 13 14 14 15 13 15 10 9 10 8 7 8 9 7 7 5 4 4 5 5 4 5 6 6 5 6
3 2 4 4 4 4 3 5 9 5 5 5 6 8 10 14 8 15 17 16 16 14 13 15 15 13 14 14 14 12 10 10 9 9 9 11 9 9 8 7 5 5 4 7 7 7 6 7 6
4 5 2 2 7 3 4 9 6 4 5 8 9 7 9 11 14 17 13 14 10 12 14 14 13 14 14 12 12 10 10 9 9 9 9 12 11 12 10 9 7 7 7 7 6 6 7 5 6
5 4 3 5 6 4 4 6 7 3 2 5 6 9 9 11 11 15 12 14 14 15 14 15 15 16 15 13 11 11 13 10 9 9 10 13 12 13 11 9 8 10 8 7 8 6 7 7 5
6 3 4 4 6 2 4 9 10 10 6 9 10 10 10 11 17 14 15 13 14 13 14 16 15 16 15 11 9 9 10 10 10 10 11 14 12 14 11 8 10 9 8 8 8 10 7 7 7
5 3 2 3 4 6 8 8 11 10 7 13 11 12 13 14 12 10 11 12 13 9 11 15 16 15 12 10 11 11 11 10 10 10 14 15 13 14 13 9 11 10 10 10 11 10 12 6 9
4 3 5 5 0 4 5 12 11 8 12 14 14 14 15 8 6 11 10 9 12 17 16 15 16 16 15 12 11 7 10 9 10 9 12 14 15 15 14 13 13 13 9 11 12 14 10 3 9
5 6 5 6 2 3 4 10 6 5 6 7 10 13 14 9 10 11 10 11 10 13 16 16 17 18 17 16 6 4 5 3 3 6 9 12 15 15 15 15 13 13 12 12 15 14 14 8 10
5 5 5 3 3 4 2 9 5 6 8 8 15 14 10 8 9 9 9 8 10 13 13 14 15 15 14 12 11 13 10 10 9 8 6 7 13 14 15 15 15 16 12 14 15 15 12 9 13
7 4 4 2 3 2 2 0 10 3 5 14 11 11 11 10 9 10 10 9 8 7 9 8 8 9 9 14 15 13 12 8 3 2 9 6 6 9 15 16 17 16 12 13 16 16 13 12 11
8 7 8 5 3 5 9 9 6 5 7 4 5 5 6 3 2 4 2 1 1 4 6 7 10 12 12 13 12 13 14 6 5 4 6 6 4 5 5 11 13 14 15 15 14 16 17 15 11
5 8 2 4 2 8 1 2 10 6 9 6 5 6 7 4 4 6 5 2 3 6 6 5 6 5 5 7 7 8 8 9 10 8 7 7 5 3 7 7 10 10 13 13 15 14 15 14 13
8 10 9 9 5 5 3 7 7 5 7 10 8 8 5 2 4 5 5 3 4 3 2 3 5 5 6 6 6 6 6 6 5 6 5 7 7 8 7 8 9 10 10 10 12 11 13 13 12
7 7 6 6 2 4 6 6 10 6 10 10 12 10 6 5 4 4 5 4 5 5 4 2 1 1 2 4 4 6 6 7 8 8 8 6 6 6 8 9 10 9 10 11 12 10 13 13 13
7 9 4 3 3 5 5 4 7 7 6 5 7 11 11 7 6 8 8 7 6 5 4 4 3 1 1 4 5 5 7 7 7 7 9 8 8 7 8 10 11 10 10 11 12 10 9 12 10
4 4 3 6 6 7 1 7 7 5 3 6 7 7 7 8 7 6 6 6 5 5 5 4 3 2 2 3 3 5 6 6 6 7 7 8 6 8 9 11 11 11 11 11 12 12 11 14 14
3 8 8 7 5 5 4 7 4 9 7 9 7 6 6 6 5 4 4 4 4 5 5 5 5 4 4 4 4 6 6 6 6 6 7 7 8 7 9 8 10 11 11 11 13 13 12 15 15
Wind_Direction
338 332 81 35 61 64 325 223 164 133 67 69 89 108 129 95 138 197 213 155 132 145 152 146 144 137 130 124 122 119 114 108 103 99 98 94 97 100 104 100 93 90 87 88 89 81 77 87 89
359 344 41 86 83 77 273 269 125 229 159 127 94 99 67 111 125 117 107 156 141 145 150 146 142 142 135 130 127 122 116 109 106 105 107 103 100 100 107 106 100 92 90 90 87 78 83 90 88
241 57 82 94 108 163 177 184 157 169 163 107 87 60 132 159 108 147 144 145 137 144 147 149 146 144 140 135 131 124 119 115 113 111 111 106 104 107 111 109 100 98 90 93 88 78 95 93 92
60 17 32 83 195 231 161 174 174 142 48 52 110 75 38 227 160 149 139 142 137 145 146 153 151 147 142 136 133 130 126 121 118 116 113 111 106 112 116 109 102 96 96 98 90 85 91 91 89
37 66 56 59 309 11 47 168 168 138 144 130 115 177 73 338 93 138 143 143 145 146 145 155 152 148 144 141 139 137 132 131 127 123 119 112 113 113 111 106 103 103 101 103 94 90 96 95 91
43 92 60 138 287 136 191 183 157 115 156 161 78 113 192 306 137 150 149 145 149 147 152 156 152 149 148 147 144 141 137 136 134 130 127 121 115 119 114 110 111 109 108 108 97 98 98 96 92
108 84 176 178 206 253 187 161 131 161 150 218 153 115 301 300 196 140 142 143 146 148 149 155 157 155 151 148 145 144 143 140 138 136 131 121 115 111 110 110 117 117 118 110 103 99 98 96 90
103 94 135 224 151 253 206 163 130 136 217 101 151 171 193 224 200 134 141 151 150 157 156 159 159 158 155 155 149 148 146 144 138 122 112 110 109 108 108 105 121 121 117 110 110 103 99 93 84
102 65 161 212 149 196 208 140 27 136 113 64 26 151 221 156 156 127 133 148 159 165 162 158 167 163 155 152 158 149 146 136 127 120 115 94 91 97 97 127 129 125 120 117 111 105 99 91 81
88 109 205 253 168 169 207 199 153 121 115 117 22 30 98 140 163 169 173 176 173 171 175 161 168 171 160 162 157 142 142 139 133 133 129 116 110 109 111 115 121 124 120 115 114 108 94 79 65
139 171 196 287 127 46 163 117 223 128 211 204 192 176 163 161 182 189 192 188 184 172 169 170 167 169 171 170 162 155 139 134 132 140 131 125 118 117 110 108 114 119 76 76 85 87 73 80 79
133 218 177 177 209 118 183 326 232 193 214 178 207 178 166 176 188 195 202 191 182 182 175 181 169 170 172 173 170 163 161 155 160 162 144 138 129 131 138 138 136 111 108 104 93 89 91 80 73
160 186 151 165 161 166 139 251 260 257 243 233 123 159 186 192 199 206 207 197 181 189 183 180 177 172 173 174 180 173 170 171 175 164 155 150 147 149 138 146 139 130 122 118 103 101 99 90 85
182 158 194 177 196 173 173 248 25 280 247 243 173 198 204 200 205 201 197 203 196 194 192 185 181 179 176 177 184 179 172 171 173 172 174 165 160 154 146 149 144 136 129 119 118 119 109 90 91
130 131 333 210 196 208 138 292 228 240 302 299 200 218 217 225 211 211 209 207 200 203 191 189 186 185 181 180 179 184 176 172 176 180 174 173 166 161 157 158 155 142 122 117 108 96 98 100 90
95 52 122 300 145 204 127 264 256 275 201 262 268 237 238 237 221 224 213 212 200 199 195 190 190 188 186 181 178 182 184 179 178 182 175 178 171 166 163 166 167 152 140 128 125 124 105 91 106
3 204 184 311 203 138 165 253 261 176 54 298 261 261 241 243 241 236 224 216 206 200 195 196 192 190 187 186 179 180 182 185 184 181 181 181 174 172 170 173 161 157 148 143 143 130 131 121 110
199 201 230 215 205 176 186 255 274 278 292 259 268 255 242 245 240 227 224 212 218 206 196 196 194 193 185 180 175 181 185 189 185 184 188 181 180 178 176 169 157 158 152 151 146 138 126 132 129
153 170 204 240 216 158 227 251 263 277 299 284 264 261 255 237 242 234 232 218 211 211 196 197 190 192 176 179 180 189 193 189 190 186 184 183 184 182 177 165 158 164 167 163 148 137 140 131 135
219 209 235 295 352 165 275 264 249 248 252 244 266 268 260 253 243 249 233 210 200 205 201 199 197 185 186 185 187 188 187 197 185 189 184 184 182 183 181 169 170 174 160 162 167 159 144 117 178
195 177 200 216 360 298 324 287 251 281 260 273 253 251 266 245 249 251 244 222 209 203 199 197 195 191 192 186 143 79 84 63 123 195 188 191 183 184 184 182 176 174 169 172 177 173 175 157 194
206 205 183 177 86 247 63 286 279 242 269 288 271 265 275 271 255 252 249 235 210 215 205 203 194 188 192 174 170 179 191 192 204 192 193 187 185 185 188 186 184 182 177 182 180 180 187 153 186
220 151 160 107 117 18 291 235 278 258 253 256 276 273 269 253 250 262 252 243 234 203 199 180 168 172 171 181 187 191 201 206 116 127 171 181 182 191 192 191 189 185 187 187 186 185 189 186 184
142 76 43 52 63 284 200 179 282 239 215 263 260 279 279 254 278 289 333 121 175 132 139 152 163 183 184 188 195 199 203 154 145 157 179 186 195 195 215 196 194 196 188 189 189 190 195 197 193
105 87 350 341 355 233 35 156 241 263 257 251 283 285 288 281 321 351 15 48 146 182 182 173 177 176 157 173 178 188 194 169 182 175 189 180 196 196 206 199 196 198 203 195 187 191 193 197 197
183 155 165 194 201 258 308 241 247 274 293 269 277 273 330 271 266 260 268 324 349 30 84 123 150 170 179 177 184 178 170 180 192 175 178 196 202 207 193 201 207 203 194 191 200 198 200 196 211
193 207 171 94 30 52 226 293 305 304 292 305 321 336 320 258 260 283 308 350 345 349 351 359 65 63 170 188 171 183 176 179 189 182 184 193 190 191 194 198 209 204 192 188 191 201 202 200 196
159 163 86 6 149 254 261 242 219 271 343 331 359 11 357 20 41 22 9 3 3 4 7 24 36 260 226 190 189 200 201 200 190 177 192 189 193 184 188 202 211 204 204 194 191 200 201 205 206
136 184 156 131 156 190 248 258 218 158 149 61 37 24 21 26 24 18 12 5 0 2 11 2 5 322 268 227 220 223 224 218 209 202 199 200 192 187 189 199 206 210 208 201 196 200 197 202 205
185 186 155 152 230 237 162 249 160 133 108 89 67 53 39 55 29 20 13 18 13 7 352 338 328 312 293 286 262 244 238 225 224 221 215 190 198 192 196 194 199 206 210 204 205 205 203 205 207